Location: Boulin
(43.2500°N, 0.1333°E)
Time: 00:14:50
(UTC+00:00)

Cosmos 1933 - Pass Details

Date: 21 March 2026
Orbit: 507 x 515 km, 82.5° (Epoch: 14 April)

Event Time Altitude Azimuth Distance (km) Brightness Sun altitude
Exits shadow 04:48:16 12° 207° (SSW) 1,583 5.3 -14.0°
Maximum altitude 04:51:35 49° 281° (WNW) 674 3.4 -13.4°
Drops below altitude 10° 04:55:18 10° 357° (N) 1,745 6.0 -12.7°
Sets 04:57:29 0° 3° (N) 2,635 7.0 -12.4°
